Akron, OH

8:56 AM EDT on September 24, 2017 (GMT -0400)
Akron Fulton International

Weather History for KAKR - January, 2013

Change the Weather History Date:

Thursday, January 10, 2013

  Actual Average (KCAK) Record (KCAK)
Temperature  
Mean Temperature 30 °F -  
Max Temperature 39 °F 30 °F 58 °F (1975)
Min Temperature 21 °F 16 °F -10 °F (1982)
Degree Days  
Heating Degree Days 35    
Moisture  
Dew Point 25 °F    
Average Humidity 74    
Maximum Humidity 93    
Minimum Humidity 57    
Precipitation  
Precipitation 0.00 in - - ()
Sea Level Pressure  
Sea Level Pressure 30.49 in    
Wind  
Wind Speed 3 mph (SE)    
Max Wind Speed 7 mph    
Max Gust Speed -    
Visibility 8 miles    
Events      
Averages and records for this station are not official NWS values.
T = Trace of Precipitation, MM = Missing Value Source: NWS Daily Summary

Daily Weather History Graph

Daily Weather History Graph

Search for Another Location

Airport or City:

Trip Planner

Search our weather history database for the weather conditions in past years. The results will help you decide how hot, cold, wet, or windy it might be!

Date:

Astronomy

Jan. 10, 2013 Rise Set
Actual Time 7:50 AM EST 5:17 PM EST
Civil Twilight 7:19 AM EST 5:47 PM EST
Nautical Twilight 6:45 AM EST 6:21 PM EST
Astronomical Twilight 6:12 AM EST 6:55 PM EST
Moon 6:28 AM EST (1/10) 4:23 PM EST (1/10)
Length of Visible Light 10h 28m
Length of Day
9h 26m
Waning Crescent, 2% of the Moon is Illuminated
Jan 10
Waning Crescent
Jan 11
New
Jan 18
First Quarter
Jan 26
Full
Feb 3
Last Quarter

Hourly Weather History & Observations

Time (EST) Temp. Windchill Dew Point Humidity Pressure Visibility Wind Dir Wind Speed Gust Speed Precip Events Conditions
12:54 AM 32.0 °F 26.4 °F 27.0 °F 82% 30.52 in 10.0 mi WSW 5.8 mph - N/A   Clear
1:54 AM 30.0 °F - 26.1 °F 85% 30.53 in 10.0 mi Calm Calm - N/A   Clear
2:54 AM 27.0 °F - 23.0 °F 85% 30.53 in 7.0 mi Calm Calm - N/A   Clear
3:54 AM 25.0 °F - 23.0 °F 92% 30.53 in 6.0 mi Calm Calm - N/A   Clear
4:54 AM 24.1 °F - 21.9 °F 91% 30.53 in 5.0 mi Calm Calm - N/A   Clear
5:54 AM 21.9 °F - 19.0 °F 89% 30.55 in 5.0 mi Calm Calm - N/A   Clear
6:54 AM 23.0 °F - 19.9 °F 88% 30.57 in 4.0 mi Calm Calm - N/A   Clear
7:54 AM 21.9 °F - 19.9 °F 92% 30.58 in 2.5 mi Calm Calm - N/A   Clear
8:13 AM 21.2 °F - 19.4 °F 93% 30.55 in 3.0 mi Calm Calm - N/A   Clear
8:54 AM 25.0 °F - 23.0 °F 92% 30.60 in 4.0 mi Calm Calm - N/A   Clear
9:54 AM 34.0 °F 31.0 °F 28.0 °F 79% 30.60 in 9.0 mi East 3.5 mph - N/A   Clear
10:54 AM 37.0 °F 34.5 °F 26.1 °F 65% 30.60 in 10.0 mi SE 3.5 mph - N/A   Clear
11:54 AM 37.9 °F 34.4 °F 26.1 °F 62% 30.56 in 10.0 mi ESE 4.6 mph - N/A   Clear
12:54 PM 37.9 °F 32.7 °F 27.0 °F 65% 30.54 in 10.0 mi ESE 6.9 mph - N/A   Clear
1:54 PM 39.0 °F 34.8 °F 26.1 °F 60% 30.51 in 10.0 mi Variable 5.8 mph - N/A   Clear
2:54 PM 39.0 °F 35.7 °F 27.0 °F 62% 30.50 in 10.0 mi ESE 4.6 mph - N/A   Clear
3:54 PM 39.0 °F 35.7 °F 27.0 °F 62% 30.48 in 10.0 mi SE 4.6 mph - N/A   Clear
4:54 PM 37.9 °F 35.5 °F 27.0 °F 65% 30.45 in 10.0 mi Variable 3.5 mph - N/A   Clear
5:54 PM 37.0 °F - 27.0 °F 67% 30.44 in 10.0 mi Calm Calm - N/A   Clear
6:54 PM 37.0 °F 33.3 °F 27.0 °F 67% 30.43 in 10.0 mi SE 4.6 mph - N/A   Partly Cloudy
7:54 PM 37.9 °F 35.5 °F 27.0 °F 65% 30.40 in 10.0 mi Variable 3.5 mph - N/A   Mostly Cloudy
8:54 PM 37.9 °F 35.5 °F 27.0 °F 65% 30.36 in 10.0 mi Variable 3.5 mph - N/A   Overcast
9:54 PM 37.9 °F 35.5 °F 26.1 °F 62% 30.32 in 10.0 mi Variable 3.5 mph - N/A   Overcast
10:54 PM 37.9 °F 33.5 °F 26.1 °F 62% 30.27 in 10.0 mi SE 5.8 mph - N/A   Overcast
11:54 PM 39.0 °F 34.0 °F 25.0 °F 57% 30.24 in 10.0 mi ESE 6.9 mph - N/A   Overcast